BAW31MN LFMN-EGLL

Flight info

Callsign BAW31MN
Flight time 1h 31m
Altitude 36000
Route BADOD DCT NEDRU DCT LTP DCT BULOL DCT IDAVO DCT BAGBI DCT SIZZA DCT LAULY DCT BRY DCT CLM DCT KOPOR DCT ABNUR DCT DIMAL DCT ALESO
Aircraft B752/M-SDE2E3FGHIJ3J4J7RWXY/LB1

Departure

Time 2026-05-07 21:10
Airport Nice-Côte d'Azur Airport (LFMN)

Arrival

Time 2026-05-07 22:42
Airport London Heathrow Airport (EGLL)
Time Latitude Longitude Altitude Speed Heading
2026-05-07 20:36 43.66399 7.21094 38 ft 0 kts 351°
2026-05-07 20:49 43.66398 7.21094 38 ft 0 kts 351°
2026-05-07 20:57 43.66392 7.21096 38 ft 2 kts 351°
2026-05-07 20:57 43.66377 7.21099 38 ft 2 kts 351°
2026-05-07 20:57 43.66363 7.21102 38 ft 2 kts 351°
2026-05-07 20:57 43.66348 7.21105 37 ft 2 kts 350°
2026-05-07 20:58 43.66333 7.21109 37 ft 2 kts 329°
2026-05-07 20:58 43.66322 7.21124 37 ft 2 kts 295°
2026-05-07 20:58 43.66319 7.21144 37 ft 2 kts 263°
2026-05-07 20:58 43.66323 7.21164 37 ft 2 kts 259°
2026-05-07 20:59 43.66324 7.21178 38 ft 0 kts 262°
2026-05-07 20:59 43.66324 7.21177 38 ft 0 kts 262°
2026-05-07 21:02 43.66322 7.21150 37 ft 5 kts 262°
2026-05-07 21:02 43.66314 7.21084 36 ft 8 kts 258°
2026-05-07 21:02 43.66283 7.21012 34 ft 9 kts 209°
2026-05-07 21:03 43.66215 7.21011 32 ft 10 kts 170°
2026-05-07 21:03 43.66141 7.21028 31 ft 11 kts 171°
2026-05-07 21:03 43.66059 7.21045 29 ft 12 kts 172°
2026-05-07 21:03 43.65971 7.21064 27 ft 13 kts 172°
2026-05-07 21:04 43.65879 7.21036 26 ft 14 kts 211°
2026-05-07 21:04 43.65806 7.20941 24 ft 14 kts 224°
2026-05-07 21:04 43.65735 7.20841 25 ft 14 kts 226°
2026-05-07 21:04 43.65669 7.20748 25 ft 13 kts 226°
2026-05-07 21:05 43.65602 7.20655 24 ft 13 kts 223°
2026-05-07 21:05 43.65531 7.20561 22 ft 14 kts 224°
2026-05-07 21:05 43.65458 7.20462 21 ft 14 kts 227°
2026-05-07 21:05 43.65387 7.20362 20 ft 15 kts 222°
2026-05-07 21:06 43.65330 7.20298 18 ft 8 kts 202°
2026-05-07 21:06 43.65277 7.20304 18 ft 7 kts 150°
2026-05-07 21:06 43.65236 7.20353 18 ft 7 kts 137°
2026-05-07 21:06 43.65187 7.20418 18 ft 13 kts 137°
2026-05-07 21:07 43.65098 7.20474 18 ft 14 kts 184°
2026-05-07 21:07 43.65024 7.20402 18 ft 13 kts 225°
2026-05-07 21:07 43.64957 7.20311 17 ft 13 kts 225°
2026-05-07 21:07 43.64887 7.20223 16 ft 13 kts 199°
2026-05-07 21:08 43.64848 7.20224 16 ft 2 kts 161°
2026-05-07 21:08 43.64831 7.20237 17 ft 3 kts 145°
2026-05-07 21:08 43.64822 7.20248 17 ft 2 kts 135°
2026-05-07 21:08 43.64804 7.20273 17 ft 5 kts 134°
2026-05-07 21:09 43.64772 7.20315 18 ft 6 kts 137°
2026-05-07 21:09 43.64761 7.20360 18 ft 5 kts 67°
2026-05-07 21:09 43.64785 7.20403 18 ft 6 kts 45°
2026-05-07 21:09 43.64881 7.20534 18 ft 45 kts 44°
2026-05-07 21:10 43.65288 7.21091 22 ft 118 kts 46°
2026-05-07 21:10 43.66016 7.22101 145 ft 169 kts 46°
2026-05-07 21:10 43.66756 7.23332 978 ft 173 kts 68°
2026-05-07 21:10 43.66869 7.24966 1747 ft 184 kts 106°
2026-05-07 21:11 43.66188 7.26551 2219 ft 203 kts 128°
2026-05-07 21:11 43.65242 7.28061 2852 ft 216 kts 130°
2026-05-07 21:11 43.63419 7.31439 4429 ft 224 kts 103°
2026-05-07 21:12 43.63427 7.33526 5225 ft 225 kts 71°
2026-05-07 21:12 43.63969 7.35532 6043 ft 227 kts 69°
2026-05-07 21:12 43.64498 7.37559 6844 ft 229 kts 70°
2026-05-07 21:12 43.65048 7.39661 7631 ft 233 kts 70°
2026-05-07 21:13 43.65595 7.41751 8413 ft 235 kts 70°
2026-05-07 21:13 43.66155 7.43893 9147 ft 239 kts 70°
2026-05-07 21:13 43.66714 7.46029 9870 ft 243 kts 70°
2026-05-07 21:13 43.67312 7.48310 9996 ft 257 kts 68°
2026-05-07 21:14 43.68321 7.50446 10037 ft 282 kts 42°
2026-05-07 21:14 43.70052 7.51851 10029 ft 295 kts 16°
2026-05-07 21:14 43.72100 7.52061 10058 ft 298 kts 349°
2026-05-07 21:14 43.74043 7.50963 10485 ft 315 kts 326°
2026-05-07 21:15 43.75722 7.48851 11042 ft 337 kts 307°
2026-05-07 21:15 43.76907 7.46043 11482 ft 354 kts 290°
2026-05-07 21:15 43.77504 7.42652 11801 ft 372 kts 274°
2026-05-07 21:15 43.77371 7.39049 12353 ft 382 kts 258°
2026-05-07 21:16 43.76887 7.35472 13303 ft 382 kts 263°
2026-05-07 21:16 43.76865 7.31774 13952 ft 389 kts 272°
2026-05-07 21:16 43.77145 7.28066 14732 ft 392 kts 280°
2026-05-07 21:16 43.78003 7.24491 15413 ft 398 kts 296°
2026-05-07 21:17 43.79539 7.21269 16125 ft 402 kts 309°
2026-05-07 21:17 43.81376 7.18376 16789 ft 406 kts 310°
2026-05-07 21:17 43.83212 7.15437 17486 ft 409 kts 309°
2026-05-07 21:17 43.85068 7.12452 18147 ft 412 kts 309°
2026-05-07 21:18 43.86932 7.09436 18811 ft 415 kts 309°
2026-05-07 21:18 43.88826 7.06364 19463 ft 418 kts 309°
2026-05-07 21:18 43.90700 7.03317 20099 ft 421 kts 308°
2026-05-07 21:18 43.92592 7.00234 20714 ft 424 kts 308°
2026-05-07 21:19 43.94510 6.97106 21306 ft 427 kts 308°
2026-05-07 21:19 43.96428 6.93971 21883 ft 430 kts 308°
2026-05-07 21:19 43.98365 6.90805 22421 ft 434 kts 308°
2026-05-07 21:19 44.00313 6.87614 22979 ft 436 kts 308°
2026-05-07 21:20 44.02295 6.84364 23476 ft 440 kts 308°
2026-05-07 21:20 44.04260 6.81141 24016 ft 442 kts 308°
2026-05-07 21:20 44.06257 6.77860 24536 ft 445 kts 307°
2026-05-07 21:20 44.08250 6.74581 25033 ft 448 kts 307°
2026-05-07 21:21 44.10254 6.71281 25573 ft 449 kts 307°
2026-05-07 21:21 44.12279 6.67942 26021 ft 453 kts 307°
2026-05-07 21:21 44.14307 6.64594 26566 ft 453 kts 306°
2026-05-07 21:21 44.16346 6.61224 26918 ft 458 kts 306°
2026-05-07 21:22 44.18372 6.57872 27425 ft 458 kts 306°
2026-05-07 21:22 44.20520 6.54557 27795 ft 465 kts 312°
2026-05-07 21:22 44.23034 6.51710 28231 ft 472 kts 321°
2026-05-07 21:22 44.25874 6.49293 28543 ft 479 kts 325°
2026-05-07 21:23 44.28744 6.46951 28997 ft 480 kts 325°
2026-05-07 21:23 44.31604 6.44618 29298 ft 484 kts 324°
2026-05-07 21:23 44.34515 6.42246 29695 ft 485 kts 324°
2026-05-07 21:23 44.37403 6.39895 30233 ft 483 kts 324°
2026-05-07 21:24 44.40300 6.37533 30663 ft 483 kts 324°
2026-05-07 21:24 44.43185 6.35177 31154 ft 482 kts 324°
2026-05-07 21:24 44.46086 6.32809 31658 ft 480 kts 323°
2026-05-07 21:24 44.48946 6.30469 31992 ft 482 kts 323°
2026-05-07 21:25 44.51868 6.28077 32489 ft 480 kts 323°
2026-05-07 21:25 44.54707 6.25753 33035 ft 477 kts 323°
2026-05-07 21:25 44.57590 6.23385 33320 ft 478 kts 323°
2026-05-07 21:25 44.60452 6.21036 33770 ft 476 kts 323°
2026-05-07 21:26 44.63280 6.18711 34187 ft 475 kts 323°
2026-05-07 21:26 44.66132 6.16361 34407 ft 477 kts 323°
2026-05-07 21:26 44.68958 6.14034 34883 ft 473 kts 323°
2026-05-07 21:26 44.71788 6.11699 35160 ft 472 kts 323°
2026-05-07 21:27 44.74611 6.09366 35346 ft 473 kts 323°
2026-05-07 21:27 44.77445 6.07024 35696 ft 470 kts 323°
2026-05-07 21:27 44.80258 6.04694 35962 ft 468 kts 323°
2026-05-07 21:27 44.83031 6.02397 36042 ft 465 kts 324°
2026-05-07 21:28 44.88596 5.97776 36037 ft 466 kts 324°
2026-05-07 21:28 44.94151 5.93154 36036 ft 464 kts 324°
2026-05-07 21:29 44.99710 5.88516 36031 ft 466 kts 324°
2026-05-07 21:29 45.05326 5.83824 36037 ft 465 kts 324°
2026-05-07 21:30 45.10780 5.79029 36046 ft 464 kts 322°
2026-05-07 21:30 45.16206 5.74060 36034 ft 465 kts 322°
2026-05-07 21:31 45.21645 5.69073 36033 ft 466 kts 322°
2026-05-07 21:31 45.27070 5.64088 36025 ft 467 kts 322°
2026-05-07 21:32 45.32515 5.59076 36012 ft 466 kts 322°
2026-05-07 21:32 45.37951 5.54060 36007 ft 467 kts 322°
2026-05-07 21:33 45.43377 5.49040 36005 ft 468 kts 322°
2026-05-07 21:33 45.48898 5.44089 36008 ft 471 kts 328°
2026-05-07 21:34 45.54886 5.40264 35995 ft 475 kts 332°
2026-05-07 21:34 45.60949 5.36484 36000 ft 476 kts 332°
2026-05-07 21:35 45.66981 5.32733 35993 ft 475 kts 332°
2026-05-07 21:35 45.73051 5.28955 35996 ft 475 kts 332°
2026-05-07 21:36 45.79098 5.25183 35995 ft 475 kts 332°
2026-05-07 21:36 45.85121 5.21421 35994 ft 475 kts 332°
2026-05-07 21:37 45.91151 5.17643 35998 ft 474 kts 332°
2026-05-07 21:37 45.97183 5.13857 35992 ft 475 kts 332°
2026-05-07 21:38 46.03227 5.10054 35980 ft 475 kts 332°
2026-05-07 21:38 46.09282 5.06217 35986 ft 475 kts 332°
2026-05-07 21:39 46.15331 5.02368 35983 ft 474 kts 332°
2026-05-07 21:39 46.21336 4.98537 35984 ft 475 kts 332°
2026-05-07 21:40 46.27338 4.94701 35984 ft 474 kts 332°
2026-05-07 21:40 46.33374 4.90831 35987 ft 474 kts 332°
2026-05-07 21:41 46.39390 4.86965 35984 ft 474 kts 332°
2026-05-07 21:41 46.45376 4.83110 35991 ft 473 kts 333°
2026-05-07 21:42 46.51342 4.79258 35998 ft 472 kts 332°
2026-05-07 21:42 46.57407 4.75332 35996 ft 480 kts 332°
2026-05-07 21:43 46.63488 4.71387 35989 ft 481 kts 333°
2026-05-07 21:43 46.69596 4.67415 35989 ft 480 kts 333°
2026-05-07 21:44 46.75650 4.63468 35990 ft 480 kts 333°
2026-05-07 21:44 46.81738 4.59490 35994 ft 479 kts 333°
2026-05-07 21:45 46.87826 4.55536 35988 ft 480 kts 333°
2026-05-07 21:45 46.93908 4.51577 35990 ft 481 kts 333°
2026-05-07 21:46 47.00003 4.47600 35993 ft 480 kts 333°
2026-05-07 21:46 47.06079 4.43626 35999 ft 480 kts 333°
2026-05-07 21:47 47.12201 4.39610 36000 ft 481 kts 333°
2026-05-07 21:47 47.18252 4.35632 35996 ft 480 kts 333°
2026-05-07 21:48 47.24345 4.31616 36004 ft 479 kts 332°
2026-05-07 21:48 47.30427 4.27597 36006 ft 479 kts 332°
2026-05-07 21:49 47.36501 4.23572 36006 ft 479 kts 332°
2026-05-07 21:49 47.42553 4.19553 36009 ft 479 kts 332°
2026-05-07 21:50 47.48586 4.15536 36007 ft 479 kts 332°
2026-05-07 21:50 47.54666 4.11477 36011 ft 479 kts 332°
2026-05-07 21:51 47.60727 4.07430 36012 ft 480 kts 332°
2026-05-07 21:51 47.66790 4.03372 36012 ft 480 kts 332°
2026-05-07 21:52 47.72877 3.99288 36010 ft 479 kts 332°
2026-05-07 21:52 47.78936 3.95212 36011 ft 479 kts 332°
2026-05-07 21:53 47.85008 3.91116 36013 ft 479 kts 332°
2026-05-07 21:53 47.91023 3.87049 36016 ft 478 kts 332°
2026-05-07 21:54 47.97071 3.82948 36015 ft 478 kts 332°
2026-05-07 21:54 48.03102 3.78849 36022 ft 478 kts 332°
2026-05-07 21:55 48.09166 3.74716 36018 ft 479 kts 332°
2026-05-07 21:55 48.15019 3.70065 36023 ft 473 kts 320°
2026-05-07 21:56 48.19789 3.63366 36015 ft 470 kts 310°
2026-05-07 21:56 48.24258 3.56277 36003 ft 469 kts 310°
2026-05-07 21:57 48.28685 3.49134 36008 ft 469 kts 310°
2026-05-07 21:57 48.33109 3.41934 36007 ft 469 kts 310°
2026-05-07 21:58 48.37498 3.34758 36011 ft 470 kts 310°
2026-05-07 21:58 48.42632 3.28629 36022 ft 478 kts 328°
2026-05-07 21:59 48.48703 3.24480 36018 ft 481 kts 333°
2026-05-07 21:59 48.54854 3.20500 36016 ft 480 kts 334°
2026-05-07 22:00 48.60961 3.16569 36017 ft 481 kts 334°
2026-05-07 22:00 48.67103 3.12617 36019 ft 481 kts 334°
2026-05-07 22:01 48.73250 3.08655 36020 ft 481 kts 334°
2026-05-07 22:01 48.79377 3.04698 36021 ft 481 kts 334°
2026-05-07 22:02 48.85447 3.00502 36022 ft 479 kts 328°
2026-05-07 22:02 48.91241 2.95470 36026 ft 480 kts 327°
2026-05-07 22:03 48.96987 2.90460 36028 ft 479 kts 327°
2026-05-07 22:03 49.02753 2.85407 36030 ft 479 kts 327°
2026-05-07 22:04 49.08514 2.80342 36034 ft 479 kts 327°
2026-05-07 22:04 49.14291 2.75247 36034 ft 478 kts 327°
2026-05-07 22:05 49.20018 2.70181 36030 ft 478 kts 327°
2026-05-07 22:05 49.25763 2.65087 36029 ft 479 kts 327°
2026-05-07 22:06 49.31551 2.59939 36028 ft 479 kts 327°
2026-05-07 22:06 49.37308 2.54806 36024 ft 480 kts 327°
2026-05-07 22:07 49.43048 2.49673 36027 ft 480 kts 327°
2026-05-07 22:07 49.48787 2.44527 36027 ft 480 kts 327°
2026-05-07 22:08 49.54607 2.39464 36025 ft 480 kts 329°
2026-05-07 22:08 49.60444 2.34535 36029 ft 480 kts 328°
2026-05-07 22:09 49.66289 2.29581 36033 ft 479 kts 328°
2026-05-07 22:09 49.72135 2.24611 36038 ft 479 kts 328°
2026-05-07 22:10 49.77967 2.19640 36039 ft 480 kts 328°
2026-05-07 22:10 49.83838 2.14621 36043 ft 481 kts 328°
2026-05-07 22:11 49.89669 2.09622 36039 ft 481 kts 328°
2026-05-07 22:11 49.95480 2.04627 36035 ft 480 kts 328°
2026-05-07 22:12 50.01284 1.99623 36038 ft 480 kts 328°
2026-05-07 22:12 50.07131 1.94568 36044 ft 480 kts 328°
2026-05-07 22:13 50.12949 1.89524 36036 ft 479 kts 328°
2026-05-07 22:13 50.18399 1.83716 36032 ft 474 kts 315°
2026-05-07 22:14 50.23163 1.76621 36030 ft 475 kts 314°
2026-05-07 22:14 50.27893 1.69474 35933 ft 480 kts 314°
2026-05-07 22:15 50.30298 1.65812 35537 ft 485 kts 314°
2026-05-07 22:15 50.32666 1.62199 35089 ft 478 kts 314°
2026-05-07 22:15 50.35023 1.58593 34358 ft 474 kts 313°
2026-05-07 22:15 50.37367 1.54998 33639 ft 470 kts 314°
2026-05-07 22:16 50.39680 1.51442 32979 ft 466 kts 314°
2026-05-07 22:16 50.41961 1.47929 32363 ft 460 kts 314°
2026-05-07 22:16 50.44230 1.44431 31778 ft 454 kts 314°
2026-05-07 22:16 50.46427 1.41038 31222 ft 448 kts 314°
2026-05-07 22:17 50.48638 1.37619 30668 ft 442 kts 314°
2026-05-07 22:17 50.50747 1.34174 30106 ft 435 kts 310°
2026-05-07 22:17 50.52757 1.30745 29537 ft 429 kts 310°
2026-05-07 22:17 50.54776 1.27314 29000 ft 423 kts 310°
2026-05-07 22:18 50.56746 1.23963 28484 ft 414 kts 310°
2026-05-07 22:18 50.60706 1.17608 27428 ft 408 kts 313°
2026-05-07 22:18 50.62714 1.14438 26887 ft 412 kts 313°
2026-05-07 22:19 50.64728 1.11258 26343 ft 410 kts 313°
2026-05-07 22:19 50.66727 1.08096 25805 ft 404 kts 313°
2026-05-07 22:19 50.68697 1.04976 25283 ft 399 kts 313°
2026-05-07 22:19 50.70633 1.01906 24781 ft 396 kts 313°
2026-05-07 22:20 50.72557 0.98850 24289 ft 395 kts 313°
2026-05-07 22:20 50.74478 0.95794 23800 ft 393 kts 313°
2026-05-07 22:20 50.76387 0.92755 23315 ft 390 kts 313°
2026-05-07 22:20 50.78284 0.89731 22833 ft 386 kts 313°
2026-05-07 22:21 50.80146 0.86760 22367 ft 383 kts 313°
2026-05-07 22:21 50.82010 0.83780 21890 ft 381 kts 313°
2026-05-07 22:21 50.83875 0.80797 21418 ft 377 kts 313°
2026-05-07 22:21 50.85692 0.77885 20960 ft 374 kts 313°
2026-05-07 22:22 50.87500 0.74986 20464 ft 372 kts 313°
2026-05-07 22:22 50.89311 0.72077 19988 ft 369 kts 313°
2026-05-07 22:22 50.91116 0.69176 19516 ft 366 kts 313°
2026-05-07 22:22 50.92883 0.66333 19041 ft 363 kts 313°
2026-05-07 22:23 50.94650 0.63485 18583 ft 361 kts 313°
2026-05-07 22:23 50.96408 0.60649 18144 ft 359 kts 313°
2026-05-07 22:23 50.98144 0.57845 17552 ft 362 kts 313°
2026-05-07 22:23 50.99887 0.55027 16792 ft 360 kts 313°
2026-05-07 22:24 51.01643 0.52184 16285 ft 351 kts 313°
2026-05-07 22:24 51.03303 0.49496 16021 ft 337 kts 313°
2026-05-07 22:24 51.04941 0.46837 15781 ft 345 kts 313°
2026-05-07 22:24 51.06641 0.44080 15535 ft 350 kts 314°
2026-05-07 22:25 51.08401 0.41371 14978 ft 355 kts 315°
2026-05-07 22:25 51.10177 0.38676 14201 ft 353 kts 315°
2026-05-07 22:25 51.11930 0.36003 13566 ft 352 kts 315°
2026-05-07 22:25 51.13687 0.33324 13337 ft 337 kts 314°
2026-05-07 22:26 51.15319 0.30830 13122 ft 325 kts 314°
2026-05-07 22:26 51.16984 0.28281 12876 ft 335 kts 314°
2026-05-07 22:26 51.18670 0.25698 12664 ft 336 kts 314°
2026-05-07 22:26 51.20351 0.23120 12198 ft 339 kts 315°
2026-05-07 22:27 51.22031 0.20542 11570 ft 333 kts 315°
2026-05-07 22:27 51.23669 0.18026 10938 ft 324 kts 315°
2026-05-07 22:27 51.25254 0.15587 10589 ft 311 kts 315°
2026-05-07 22:27 51.26835 0.13152 10338 ft 317 kts 315°
2026-05-07 22:28 51.28437 0.10682 10145 ft 319 kts 315°
2026-05-07 22:28 51.29956 0.08340 9806 ft 298 kts 315°
2026-05-07 22:28 51.31414 0.06087 9658 ft 282 kts 315°
2026-05-07 22:28 51.32581 0.03700 9254 ft 265 kts 291°
2026-05-07 22:29 51.32990 0.00953 8903 ft 250 kts 276°
2026-05-07 22:29 51.33187 -0.01793 8300 ft 249 kts 276°
2026-05-07 22:29 51.33360 -0.04523 7711 ft 247 kts 275°
2026-05-07 22:29 51.33508 -0.07251 7155 ft 244 kts 274°
2026-05-07 22:30 51.33636 -0.09847 7032 ft 230 kts 274°
2026-05-07 22:30 51.33757 -0.12489 7069 ft 247 kts 274°
2026-05-07 22:30 51.33879 -0.15252 7049 ft 248 kts 274°
2026-05-07 22:30 51.33997 -0.18002 7042 ft 247 kts 274°
2026-05-07 22:31 51.34112 -0.20741 7049 ft 247 kts 274°
2026-05-07 22:31 51.34226 -0.23473 7049 ft 247 kts 274°
2026-05-07 22:31 51.34339 -0.26218 7038 ft 246 kts 274°
2026-05-07 22:31 51.34448 -0.28904 6751 ft 239 kts 274°
2026-05-07 22:32 51.34553 -0.31489 6475 ft 237 kts 274°
2026-05-07 22:32 51.34661 -0.34178 6305 ft 246 kts 274°
2026-05-07 22:32 51.34772 -0.36941 6145 ft 248 kts 274°
2026-05-07 22:32 51.34879 -0.39648 5931 ft 244 kts 274°
2026-05-07 22:33 51.34986 -0.42355 5718 ft 241 kts 274°
2026-05-07 22:33 51.35091 -0.45033 5510 ft 242 kts 274°
2026-05-07 22:33 51.35196 -0.47735 5302 ft 242 kts 274°
2026-05-07 22:33 51.35300 -0.50402 5112 ft 241 kts 274°
2026-05-07 22:34 51.35403 -0.53057 4908 ft 240 kts 273°
2026-05-07 22:34 51.35505 -0.55734 4701 ft 239 kts 273°
2026-05-07 22:34 51.35607 -0.58399 4489 ft 239 kts 273°
2026-05-07 22:34 51.35706 -0.61027 4285 ft 238 kts 273°
2026-05-07 22:35 51.35806 -0.63668 4082 ft 238 kts 273°
2026-05-07 22:35 51.35958 -0.66294 3886 ft 236 kts 282°
2026-05-07 22:35 51.36374 -0.68768 3733 ft 226 kts 282°
2026-05-07 22:35 51.36681 -0.71213 3516 ft 221 kts 278°
2026-05-07 22:36 51.36941 -0.73584 3332 ft 214 kts 286°
2026-05-07 22:36 51.37739 -0.75516 3241 ft 208 kts 323°
2026-05-07 22:36 51.39003 -0.76724 3184 ft 217 kts 336°
2026-05-07 22:36 51.40432 -0.77565 3082 ft 217 kts 345°
2026-05-07 22:37 51.41881 -0.78098 3033 ft 214 kts 350°
2026-05-07 22:37 51.43361 -0.78341 3037 ft 214 kts
2026-05-07 22:37 51.44743 -0.77588 3063 ft 213 kts 30°
2026-05-07 22:37 51.46027 -0.76382 3039 ft 211 kts 35°
2026-05-07 22:38 51.47126 -0.74873 3042 ft 207 kts 54°
2026-05-07 22:38 51.47665 -0.72785 3059 ft 203 kts 89°
2026-05-07 22:38 51.47656 -0.70492 2829 ft 210 kts 93°
2026-05-07 22:38 51.47654 -0.68187 2543 ft 207 kts 91°
2026-05-07 22:39 51.47676 -0.65871 2258 ft 206 kts 91°
2026-05-07 22:39 51.47689 -0.63600 1969 ft 197 kts 91°
2026-05-07 22:39 51.47700 -0.61528 1729 ft 178 kts 92°
2026-05-07 22:39 51.47709 -0.59681 1517 ft 157 kts 92°
2026-05-07 22:40 51.47718 -0.58004 1265 ft 142 kts 92°
2026-05-07 22:40 51.47721 -0.56488 1014 ft 130 kts 92°
2026-05-07 22:40 51.47727 -0.55059 757 ft 130 kts 91°
2026-05-07 22:40 51.47733 -0.53630 671 ft 130 kts 92°
2026-05-07 22:41 51.47736 -0.52157 595 ft 136 kts 91°
2026-05-07 22:41 51.47746 -0.50602 433 ft 139 kts 90°
2026-05-07 22:41 51.47752 -0.49066 195 ft 136 kts 91°
2026-05-07 22:41 51.47758 -0.47567 93 ft 132 kts 90°
2026-05-07 22:42 51.47760 -0.46337 85 ft 78 kts 90°
2026-05-07 22:42 51.47761 -0.45739 84 ft 32 kts 89°
2026-05-07 22:42 51.47743 -0.45524 86 ft 9 kts 128°
2026-05-07 22:42 51.47684 -0.45474 86 ft 9 kts 170°
2026-05-07 22:43 51.47633 -0.45471 87 ft 6 kts 187°
2026-05-07 22:43 51.47599 -0.45516 87 ft 7 kts 251°
2026-05-07 22:43 51.47597 -0.45626 87 ft 12 kts 270°
2026-05-07 22:43 51.47597 -0.45792 85 ft 16 kts 267°
2026-05-07 22:44 51.47599 -0.45985 84 ft 17 kts 271°
2026-05-07 22:44 51.47596 -0.46182 82 ft 18 kts 266°
2026-05-07 22:44 51.47590 -0.46384 83 ft 17 kts 274°
2026-05-07 22:44 51.47594 -0.46572 84 ft 16 kts 270°
2026-05-07 22:45 51.47591 -0.46760 84 ft 16 kts 269°
2026-05-07 22:45 51.47586 -0.46951 84 ft 17 kts 266°
2026-05-07 22:45 51.47583 -0.47141 85 ft 16 kts 269°
2026-05-07 22:45 51.47582 -0.47283 86 ft 10 kts 268°
2026-05-07 22:46 51.47580 -0.47462 86 ft 21 kts 271°
2026-05-07 22:46 51.47581 -0.47712 84 ft 23 kts 269°
2026-05-07 22:46 51.47582 -0.47978 82 ft 24 kts 270°
2026-05-07 22:46 51.47568 -0.48206 80 ft 18 kts 258°
2026-05-07 22:47 51.47557 -0.48304 80 ft 2 kts 255°
2026-05-07 22:47 51.47556 -0.48310 80 ft 0 kts 252°
2026-05-07 22:47 51.47503 -0.48385 80 ft 22 kts 181°
2026-05-07 22:47 51.47331 -0.48340 79 ft 25 kts 180°
2026-05-07 22:48 51.47258 -0.48342 79 ft 6 kts 175°
2026-05-07 22:48 51.47247 -0.48304 79 ft 5 kts 89°
2026-05-07 22:48 51.47248 -0.48235 79 ft 6 kts 89°
2026-05-07 22:48 51.47248 -0.48228 79 ft 0 kts 89°